Weather History for Chiang Mai, Thailand

Change the Weather History Date:

Friday, June 21, 2013

  Actual Average Record
Temperature  
Mean Temperature 85 °F -  
Max Temperature 92 °F 86 °F 94 °F (2014)
Min Temperature 78 °F 73 °F 75 °F (1997)
Cooling Degree Days 20    
Growing Degree Days 35 (Base 50)    
Moisture  
Dew Point 70 °F    
Average Humidity 65    
Maximum Humidity 78    
Minimum Humidity 43    
Precipitation  
Precipitation 0.00 in 0.20 in - ()
Sea Level Pressure  
Sea Level Pressure 29.69 in    
Wind  
Wind Speed 6 mph ()    
Max Wind Speed 15 mph    
Max Gust Speed -    
Visibility 6.2 miles    
Events Rain    
Averages and records for this station are not official NWS values.
T = Trace of Precipitation, MM = Missing Value Source: Averaged Metar Reports

Daily Weather History Graph

Daily Weather History Graph

Search for Another Location

Airport:

Trip Planner

Search our weather history database for the weather conditions in past years. The results will help you decide how hot, cold, wet, or windy it might be!

Date:

Astronomy

Jun. 21, 2013 Rise Set
Actual Time 5:48 AM ICT 7:03 PM ICT
Civil Twilight 5:23 AM ICT 7:28 PM ICT
Nautical Twilight 4:54 AM ICT 7:56 PM ICT
Astronomical Twilight 4:25 AM ICT 8:26 PM ICT
Moon 4:49 PM ICT (6/21) 3:23 AM ICT (6/21)
Length of Visible Light 14h 04m
Length of Day
13h 15m
Waxing Gibbous, 92% of the Moon is Illuminated
Jun 21
Waxing Gibbous
Jun 23
Full
Jun 30
Last Quarter
Jul 8
New
Jul 16
First Quarter

Hourly Weather History & Observations

Time (ICT) Temp. Heat Index Dew Point Humidity Pressure Visibility Wind Dir Wind Speed Gust Speed Precip Events Conditions
12:00 AM 78.8 °F - 69.8 °F 74% 29.71 in 6.2 mi SW 4.6 mph - N/A   Scattered Clouds
12:30 AM 78.8 °F - 69.8 °F 74% 29.71 in 6.2 mi SSW 4.6 mph - N/A   Scattered Clouds
1:00 AM 80 °F - 73 °F 74% 29.64 in 6 mi Calm Calm - -   Scattered Clouds
1:00 AM 78.8 °F - 69.8 °F 74% 29.68 in 6.2 mi SW 2.3 mph - N/A   Scattered Clouds
1:30 AM 78.8 °F - 69.8 °F 74% 29.68 in 6.2 mi SW 2.3 mph - N/A   Scattered Clouds
2:00 AM 78.8 °F - 69.8 °F 74% 29.68 in 6.2 mi SW 2.3 mph - N/A   Scattered Clouds
2:30 AM 78.8 °F - 69.8 °F 74% 29.68 in 6.2 mi SW 4.6 mph - N/A   Scattered Clouds
3:00 AM 78.8 °F - 69.8 °F 74% 29.68 in 6.2 mi SW 4.6 mph - N/A   Scattered Clouds
3:30 AM 78.8 °F - 69.8 °F 74% 29.68 in 6.2 mi SSW 3.5 mph - N/A   Scattered Clouds
4:00 AM 78.8 °F - 69.8 °F 74% 29.68 in 6.2 mi SSW 3.5 mph - N/A   Scattered Clouds
4:30 AM 78.8 °F - 69.8 °F 74% 29.68 in 6.2 mi SSW 4.6 mph - N/A   Scattered Clouds
5:00 AM 78.8 °F - 69.8 °F 74% 29.68 in 6.2 mi South 5.8 mph - N/A   Scattered Clouds
5:30 AM 78.8 °F - 69.8 °F 74% 29.68 in 6.2 mi SSW 4.6 mph - N/A   Scattered Clouds
6:00 AM 78.8 °F - 69.8 °F 74% 29.71 in 6.2 mi SSW 5.8 mph - N/A   Scattered Clouds
6:30 AM 78.8 °F - 69.8 °F 74% 29.71 in 6.2 mi SW 5.8 mph - N/A   Scattered Clouds
7:00 AM 79 °F - 72 °F 75% 29.68 in 7 mi Calm Calm - -   Partly Cloudy
7:00 AM 78.8 °F - 69.8 °F 74% 29.74 in 6.2 mi SW 6.9 mph - N/A   Scattered Clouds
7:30 AM 78.8 °F - 69.8 °F 74% 29.74 in 6.2 mi SW 8.1 mph - N/A   Scattered Clouds
8:00 AM 80.6 °F 83.9 °F 69.8 °F 70% 29.74 in 6.2 mi SW 8.1 mph - N/A   Scattered Clouds
8:30 AM 80.6 °F 83.9 °F 69.8 °F 70% 29.74 in 6.2 mi SW 9.2 mph - N/A   Scattered Clouds
9:00 AM 80.6 °F 83.9 °F 69.8 °F 70% 29.77 in 6.2 mi SSW 10.4 mph - N/A   Scattered Clouds
9:30 AM 80.6 °F 83.9 °F 69.8 °F 70% 29.77 in 6.2 mi SW 9.2 mph - N/A Rain Light Rain
10:00 AM 78.8 °F - 71.6 °F 78% 29.77 in 6.2 mi SW 6.9 mph - N/A Rain Light Rain
10:30 AM 78.8 °F - 71.6 °F 78% 29.77 in 6.2 mi West 6.9 mph - N/A   Mostly Cloudy
11:00 AM 80.6 °F 84.6 °F 71.6 °F 74% 29.74 in 6.2 mi West 5.8 mph - N/A   Mostly Cloudy
11:30 AM 80.6 °F 84.6 °F 71.6 °F 74% 29.74 in 6.2 mi WNW 5.8 mph - N/A   Mostly Cloudy
12:00 PM 82.4 °F 87.2 °F 71.6 °F 70% 29.74 in 6.2 mi SSW 6.9 mph - N/A   Mostly Cloudy
12:30 PM 84.2 °F 89.6 °F 71.6 °F 66% 29.74 in 6.2 mi WSW 6.9 mph - N/A   Mostly Cloudy
1:00 PM 87 °F - 75 °F 60% 29.66 in 7 mi SSW 5.8 mph - -   Partly Cloudy
1:00 PM 86.0 °F 90.4 °F 69.8 °F 58% 29.71 in 6.2 mi SW 9.2 mph - N/A   Mostly Cloudy
1:30 PM 87.8 °F 92.6 °F 69.8 °F 55% 29.71 in 6.2 mi SW 9.2 mph - N/A   Mostly Cloudy
2:00 PM 87.8 °F 92.6 °F 69.8 °F 55% 29.68 in 6.2 mi SW 10.4 mph - N/A   Mostly Cloudy
2:30 PM 89.6 °F 93.4 °F 68.0 °F 49% 29.65 in 6.2 mi SSW 10.4 mph - N/A   Scattered Clouds
3:00 PM 89.6 °F 93.4 °F 68.0 °F 49% 29.65 in 6.2 mi SW 10.4 mph - N/A   Mostly Cloudy
3:30 PM 91.4 °F 95.4 °F 68.0 °F 46% 29.62 in 6.2 mi WSW 9.2 mph - N/A   Mostly Cloudy
4:00 PM 89.6 °F 93.4 °F 68.0 °F 49% 29.62 in 6.2 mi SSE 9.2 mph - N/A   Mostly Cloudy
4:30 PM 89.6 °F 92.2 °F 66.2 °F 46% 29.62 in 6.2 mi South 8.1 mph - N/A   Mostly Cloudy
5:00 PM 91.4 °F 94.0 °F 66.2 °F 43% 29.62 in 6.2 mi SSW 9.2 mph - N/A   Mostly Cloudy
5:30 PM 91.4 °F 94.0 °F 66.2 °F 43% 29.62 in 6.2 mi SSE 10.4 mph - N/A   Mostly Cloudy
6:00 PM 91.4 °F 94.0 °F 66.2 °F 43% 29.62 in 6.2 mi South 12.7 mph - N/A   Mostly Cloudy
6:30 PM 89.6 °F 92.2 °F 66.2 °F 46% 29.62 in 6.2 mi South 15.0 mph - N/A   Mostly Cloudy
7:00 PM 88 °F - 72 °F 50% 29.57 in 7 mi NW 3.5 mph - -   Partly Cloudy
7:00 PM 86.0 °F 89.4 °F 68.0 °F 55% 29.65 in 6.2 mi SSW 13.8 mph - N/A   Mostly Cloudy
7:30 PM 84.2 °F 88.4 °F 69.8 °F 62% 29.65 in 6.2 mi SSW 8.1 mph - N/A   Mostly Cloudy
8:00 PM 84.2 °F 88.4 °F 69.8 °F 62% 29.68 in 6.2 mi SW 13.8 mph - N/A   Mostly Cloudy
8:30 PM 84.2 °F 88.4 °F 69.8 °F 62% 29.68 in 6.2 mi SSW 10.4 mph - N/A   Mostly Cloudy
9:00 PM 84.2 °F 88.4 °F 69.8 °F 62% 29.71 in 6.2 mi SW 9.2 mph - N/A   Mostly Cloudy
9:30 PM 82.4 °F 86.3 °F 69.8 °F 66% 29.71 in 6.2 mi SW 6.9 mph - N/A   Mostly Cloudy
10:00 PM 82.4 °F 86.3 °F 69.8 °F 66% 29.71 in 6.2 mi SSW 4.6 mph - N/A   Scattered Clouds
10:30 PM 82.4 °F 85.4 °F 68.0 °F 62% 29.71 in 6.2 mi SSW 5.8 mph - N/A   Scattered Clouds
11:00 PM 82.4 °F 85.4 °F 68.0 °F 62% 29.74 in 6.2 mi SW 6.9 mph - N/A   Mostly Cloudy
11:30 PM 82.4 °F 85.4 °F 68.0 °F 62% 29.74 in 6.2 mi SSW 6.9 mph - N/A   Mostly Cloudy